TimeEST,TemperatureF,Dew PointF,Humidity,Sea Level PressureIn,VisibilityMPH,Wind Direction,Wind SpeedMPH,Gust SpeedMPH,PrecipitationIn,Events,Conditions,WindDirDegrees,DateUTC
12:51 AM,50.0,48.9,96,29.94,10.0,SW,4.6,-,0.00,Rain,Light Rain,220,2012-12-05 05:51:00
1:51 AM,51.1,50.0,96,29.92,7.0,WSW,3.5,-,0.01,,Mostly Cloudy,240,2012-12-05 06:51:00
2:51 AM,53.1,51.1,93,29.91,10.0,SSW,4.6,-,0.00,,Overcast,210,2012-12-05 07:51:00
3:51 AM,55.0,52.0,89,29.92,10.0,West,5.8,-,0.00,,Scattered Clouds,280,2012-12-05 08:51:00
4:51 AM,55.0,46.9,74,29.94,10.0,NNW,4.6,-,0.00,Rain,Light Rain,340,2012-12-05 09:51:00
5:51 AM,54.0,46.0,75,29.96,10.0,NW,3.5,-,0.00,Rain,Light Rain,310,2012-12-05 10:51:00
6:51 AM,53.1,46.0,77,30.00,10.0,WNW,4.6,-,0.00,,Scattered Clouds,300,2012-12-05 11:51:00
7:51 AM,52.0,42.1,69,30.01,10.0,NW,9.2,19.6,N/A,,Scattered Clouds,310,2012-12-05 12:51:00
9:51 AM,51.1,37.0,59,30.04,10.0,WNW,16.1,25.3,N/A,,Clear,300,2012-12-05 14:51:00
10:51 AM,51.8,35.6,54,30.03,10.0,WNW,11.5,-,N/A,,Clear,300,2012-12-05 15:51:00
11:51 AM,53.1,34.0,48,30.01,10.0,NW,15.0,19.6,N/A,,Clear,320,2012-12-05 16:51:00
12:51 PM,54.0,34.0,47,30.01,10.0,NNW,13.8,18.4,N/A,,Clear,330,2012-12-05 17:51:00
1:51 PM,54.0,30.9,41,30.01,10.0,WNW,15.0,24.2,N/A,,Clear,300,2012-12-05 18:51:00
2:51 PM,51.1,30.0,44,30.03,10.0,NNW,20.7,29.9,N/A,,Clear,330,2012-12-05 19:51:00
3:51 PM,48.9,30.9,50,30.05,10.0,NNW,13.8,19.6,N/A,,Partly Cloudy,330,2012-12-05 20:51:00
4:51 PM,46.0,28.9,51,30.09,10.0,NW,17.3,26.5,N/A,,Overcast,320,2012-12-05 21:51:00
5:51 PM,43.0,23.0,45,30.14,10.0,NNW,17.3,25.3,N/A,,Mostly Cloudy,330,2012-12-05 22:51:00
6:51 PM,39.9,19.9,45,30.18,10.0,NW,15.0,27.6,N/A,,Clear,320,2012-12-05 23:51:00
7:51 PM,39.0,21.0,49,30.19,10.0,NNW,10.4,19.6,N/A,,Partly Cloudy,340,2012-12-06 00:51:00
8:51 PM,37.9,21.0,51,30.20,10.0,NNW,15.0,25.3,N/A,,Clear,330,2012-12-06 01:51:00
9:51 PM,36.0,19.0,50,30.22,10.0,NW,17.3,23.0,N/A,,Clear,320,2012-12-06 02:51:00
10:51 PM,35.1,19.0,52,30.24,10.0,NNW,11.5,18.4,N/A,,Clear,330,2012-12-06 03:51:00
11:51 PM,35.1,19.0,52,30.23,10.0,NW,11.5,-,N/A,,Clear,320,2012-12-06 04:51:00